[[{"header":{"parameterUnit":"m.s-1","parameterCategory":1,"la1":30.2991,"la2":30.254,"lo1":-89.0895,"lo2":-89.0444,"dy":0.0017,"dx":0.0017,"nx":28,"ny":28,"refTime":"2024-10-22T03:00:00:Z","depth":0,"parameterNumber":2,"parameterNumberName":"U-component_of_WINDS"},"data":[0,0,0,0,0,0,0,0,0,0,0,0,0,0,0,0,0,0,0,0,0,0,0,0,0,0,0,0,0,0,0,0,0,0,0,0,0,0,0,0,0,0,0,0,0,0,0,0,0,0,0,0,0,0,0,0,0,0,1.8621,1.8622,0,1.8685,1.8685,1.8686,1.8684,1.8683,1.8682,1.8681,1.8744,1.8747,1.8749,0,0,0,0,0,0,0,0,0,0,0,0,0,1.8495,1.8497,1.8621,1.8622,1.8622,1.8685,1.8685,1.8686,1.8684,1.8683,1.8682,1.8681,1.8743,1.8746,1.8749,0,0,0,0,0,0,0,0,0,0,0,0,0,1.8553,1.8498,1.8621,1.8629,1.863,1.8684,1.8685,1.8686,1.8684,1.8683,1.8681,1.868,1.8742,1.8746,1.875,1.8799,0,0,1.8761,1.8763,0,0,0,0,0,0,0,0,1.855,1.8558,1.8627,1.8628,1.863,1.8675,1.8664,1.8724,1.8684,1.8663,1.8681,1.8679,1.8722,1.8727,1.8742,1.8802,1.8805,1.8762,1.8764,1.8765,1.8766,0,0,0,0,0,0,0,1.8546,1.8555,1.8646,1.8628,1.863,1.8628,1.8635,1.8675,1.8699,1.8665,1.8665,1.8673,1.8723,1.8739,1.8744,1.8806,1.8761,1.8765,1.8767,1.8769,1.891,1.8911,0,0,0,0,0,0,1.854,1.8551,1.8644,1.8648,1.8586,1.8632,1.8639,1.8662,1.8699,1.8703,1.8674,1.8673,1.8733,1.8739,1.8746,1.8806,1.8765,1.8769,1.8771,1.8908,1.891,1.8911,0,0,0,0,0,0,1.8537,1.8548,1.8641,1.86,1.8612,1.8635,1.866,1.8664,1.868,1.8706,1.871,1.8686,1.8732,1.8741,1.8786,1.8808,1.8771,1.8774,1.8906,1.8909,1.8911,1.8926,0,0,0,0,0,0,1.8534,1.8548,1.8567,1.86,1.8614,1.8681,1.8662,1.8666,1.8686,1.8685,1.8718,1.8722,1.8732,1.8781,1.879,1.8812,1.8777,1.8904,1.8907,1.891,1.8924,1.8929,1.8933,0,0,0,0,0,1.8529,1.8569,1.8568,1.8579,1.8639,1.8683,1.869,1.8701,1.8688,1.8708,1.8724,1.8721,1.8804,1.8785,1.8796,1.882,1.8903,1.8907,1.891,1.8922,1.8928,1.8933,0,0,0,0,0,0,1.8537,1.8573,1.8573,1.8624,1.865,1.8682,1.8707,1.8707,1.8737,1.8734,1.8746,1.8753,1.8799,1.8814,1.8792,1.8869,1.8852,1.8858,1.8858,1.8863,1.8868,1.8863,1.878,0,0,0,0,0,1.8544,1.8578,1.8607,1.865,1.8663,1.8683,1.8702,1.8708,1.8736,1.8746,1.8766,1.8792,1.8824,1.8845,1.8876,1.8927,1.8933,1.8948,1.8953,1.8956,1.8961,1.8988,1.8994,1.8923,1.8922,1.8922,0,0,1.856,1.8584,1.8604,1.8652,1.8673,1.8706,1.8692,1.8728,1.8752,1.8752,1.8796,1.8811,1.8841,1.8889,1.8911,1.8903,1.8982,1.8961,1.8963,1.8966,1.8992,1.8999,1.9005,1.8925,1.8924,1.8924,0,0,1.8606,1.8628,1.8665,1.8687,1.8719,1.8732,1.8741,1.8773,1.8784,1.8828,1.8828,1.8857,1.8913,1.8933,1.8951,1.9005,1.9003,1.9015,1.9038,1.9064,1.907,1.9075,1.9093,1.91,1.902,1.902,1.902,0,1.8621,1.8672,1.8684,1.872,1.8741,1.8743,1.878,1.88,1.8841,1.8854,1.8845,1.8914,1.8934,1.8987,1.9,1.9015,1.9025,1.9011,1.9068,1.9074,1.9078,1.9096,1.9103,1.9021,1.9021,1.9021,1.902,0,1.8689,1.8724,1.875,1.879,1.8813,1.885,1.8867,1.8889,1.8893,1.8907,1.8952,1.8977,1.9012,1.9026,1.903,1.9079,1.9073,1.9066,1.9048,1.9086,1.9103,1.911,1.9022,1.9022,1.9022,1.9021,0,0,1.8739,1.8786,1.8795,1.8813,1.8849,1.8876,1.8912,1.8948,1.8966,1.8994,1.9024,1.9071,1.9065,1.9085,1.9092,1.9115,1.9155,1.9106,1.9106,1.9113,1.9209,1.9213,1.9221,1.9155,1.9156,1.9157,1.9206,0,1.8788,1.8853,1.8865,1.8922,1.8953,1.8956,1.8988,1.9013,1.9027,1.9055,1.9071,1.9103,1.9094,1.9106,1.9129,1.9145,1.9175,1.9142,1.9181,1.9183,1.9172,1.9229,1.9234,1.9279,1.9213,1.9214,1.9215,0,1.8853,1.8883,1.8942,1.8974,1.8988,1.9016,1.9049,1.9077,1.9105,1.9114,1.9137,1.9141,1.9178,1.916,1.9211,1.9189,1.9206,1.9216,1.9218,1.9221,1.92,1.9232,1.9294,1.93,1.9225,1.9225,1.9224,0,1.8882,1.8937,1.898,1.8995,1.9033,1.9053,1.907,1.9097,1.9117,1.9146,1.916,1.9193,1.921,1.9235,1.9248,1.9234,1.9298,1.9281,1.9305,1.9304,1.9317,1.9315,1.938,1.933,1.933,1.933,1.933,0,1.8934,1.8969,1.8994,1.902,1.906,1.9074,1.9113,1.9129,1.9153,1.9182,1.9187,1.9213,1.923,1.9259,1.9269,1.9309,1.9317,1.9324,1.9326,1.9323,1.9322,1.9333,1.933,1.9332,1.9331,1.9331,1.9331,0,1.8972,1.899,1.9037,1.9069,1.9078,1.9106,1.9134,1.9159,1.9173,1.9209,1.9219,1.9241,1.9275,1.9291,1.9333,1.934,1.9385,1.9386,1.9376,1.9376,1.9398,1.9395,1.9471,1.9481,1.9426,1.9427,1.9427,0,1.9003,1.9031,1.9067,1.9087,1.9104,1.9136,1.9157,1.9172,1.9193,1.9228,1.9249,1.9283,1.9311,1.9366,1.9385,1.9418,1.9418,1.9443,1.9423,1.9419,1.9417,1.9414,1.9417,1.9446,1.9446,1.9447,1.9447,0,1.9056,1.9063,1.9094,1.9128,1.9153,1.918,1.9207,1.9222,1.9241,1.9265,1.9301,1.9323,1.9366,1.94,1.9434,1.945,1.9451,1.9453,1.946,1.9456,1.9448,1.9452,1.9384,1.9451,1.9451,1.945,1.945,1.945,1.9091,1.9115,1.9144,1.9178,1.92,1.9224,1.9249,1.9267,1.9297,1.9334,1.9341,1.9378,1.9406,1.9451,1.9469,1.9498,1.9492,1.9503,1.9505,1.9507,1.9507,1.9445,1.9504,1.9504,1.9504,1.9504,1.9504,0,1.9142,1.9161,1.9192,1.923,1.9256,1.9256,1.9286,1.9307,1.934,1.9366,1.9394,1.9435,1.9468,1.949,1.9524,1.9542,1.9544,1.955,1.9548,1.9552,1.9511,1.9501,1.9549,1.9549,1.9549,1.9549,1.9549,1.9549,1.9172,1.9213,1.9224,1.9276,1.9295,1.9332,1.9349,1.9371,1.9392,1.9437,1.9464,1.9479,1.9504,1.9539,1.9569,1.9575,1.9586,1.9593,1.9598,1.956,1.9555,1.955,1.9541,1.9596,1.9596,1.9636,1.9637,1.9637]},{"header":{"parameterUnit":"m.s-1","parameterCategory":1,"la1":30.2991,"la2":30.254,"lo1":-89.0895,"lo2":-89.0444,"dy":0.0017,"dx":0.0017,"nx":28,"ny":28,"refTime":"2024-10-22T03:00:00:Z","depth":0,"parameterNumber":3,"parameterNumberName":"V-component_of_WINDS"},"data":[0,0,0,0,0,0,0,0,0,0,0,0,0,0,0,0,0,0,0,0,0,0,0,0,0,0,0,0,0,0,0,0,0,0,0,0,0,0,0,0,0,0,0,0,0,0,0,0,0,0,0,0,0,0,0,0,0,0,0.6888,0.6887,0,0.6797,0.6795,0.6794,0.6738,0.6738,0.6738,0.6737,0.6639,0.6636,0.6634,0,0,0,0,0,0,0,0,0,0,0,0,0,0.7008,0.7006,0.6888,0.6887,0.6886,0.6797,0.6795,0.6794,0.6738,0.6738,0.6738,0.6737,0.6639,0.6637,0.6634,0,0,0,0,0,0,0,0,0,0,0,0,0,0.694,0.7005,0.6888,0.6847,0.6843,0.6797,0.6795,0.6794,0.6738,0.6738,0.6738,0.6737,0.664,0.6637,0.6633,0.662,0,0,0.6623,0.6621,0,0,0,0,0,0,0,0,0.6944,0.6936,0.6854,0.685,0.6845,0.6779,0.6801,0.6735,0.6739,0.6778,0.6737,0.6737,0.6685,0.6678,0.6661,0.6615,0.6611,0.6622,0.662,0.6619,0.6618,0,0,0,0,0,0,0,0.6949,0.6939,0.6852,0.6853,0.6847,0.6831,0.6821,0.6789,0.6735,0.6774,0.677,0.676,0.6682,0.6665,0.6659,0.6609,0.6622,0.6619,0.6617,0.6616,0.6544,0.6544,0,0,0,0,0,0,0.6961,0.6944,0.6855,0.6849,0.6895,0.683,0.6818,0.68,0.6735,0.6725,0.6761,0.6758,0.6671,0.6663,0.6655,0.6633,0.6619,0.6615,0.6613,0.6544,0.6544,0.6545,0,0,0,0,0,0,0.6963,0.6953,0.6858,0.6895,0.6882,0.6828,0.6808,0.6799,0.6781,0.6725,0.6714,0.6753,0.6671,0.666,0.6629,0.6629,0.6614,0.661,0.6544,0.6544,0.6544,0.6591,0,0,0,0,0,0,0.6967,0.6955,0.6951,0.6895,0.688,0.6836,0.6808,0.6797,0.6776,0.6771,0.6715,0.6705,0.667,0.6634,0.6625,0.6624,0.6608,0.6543,0.6544,0.6544,0.6589,0.6593,0.6596,0,0,0,0,0,0.6972,0.6967,0.6951,0.694,0.6874,0.6836,0.6827,0.6787,0.6776,0.677,0.6734,0.6707,0.6631,0.6632,0.6621,0.6619,0.6543,0.6544,0.6544,0.6588,0.6592,0.6596,0,0,0,0,0,0,0.7022,0.6959,0.694,0.6918,0.6883,0.6827,0.6818,0.6794,0.676,0.6757,0.6707,0.6695,0.6668,0.664,0.6642,0.6601,0.6584,0.6582,0.662,0.6624,0.6628,0.6635,0.6605,0,0,0,0,0,0.7031,0.7007,0.6952,0.6937,0.6921,0.6873,0.6855,0.6827,0.6788,0.6773,0.6734,0.6695,0.6662,0.6641,0.6608,0.6585,0.657,0.6577,0.6581,0.6584,0.6583,0.6567,0.6569,0.6546,0.6546,0.6546,0,0,0.7048,0.7011,0.6998,0.6947,0.6916,0.689,0.6861,0.6835,0.6815,0.6768,0.6736,0.6706,0.666,0.6632,0.6618,0.6608,0.6586,0.6585,0.6588,0.6585,0.6567,0.657,0.6571,0.6547,0.6547,0.6547,0,0,0.7067,0.7037,0.7021,0.6991,0.6945,0.6913,0.6909,0.6856,0.6835,0.6803,0.6766,0.674,0.6685,0.6653,0.663,0.6634,0.6607,0.6624,0.6642,0.6627,0.6628,0.663,0.663,0.6631,0.6623,0.6623,0.6624,0,0.7094,0.7056,0.7015,0.6991,0.6969,0.6926,0.6908,0.688,0.6826,0.681,0.68,0.6729,0.6694,0.6657,0.6659,0.6641,0.6633,0.6631,0.6632,0.6633,0.6633,0.6633,0.6633,0.6626,0.6625,0.6625,0.6625,0,0.709,0.7064,0.7056,0.7006,0.6982,0.6961,0.6915,0.6895,0.6869,0.6838,0.6804,0.6761,0.6717,0.6706,0.668,0.6665,0.666,0.6642,0.6623,0.6638,0.6637,0.6637,0.6629,0.6628,0.6628,0.6627,0,0,0.7139,0.7066,0.7064,0.704,0.6986,0.6964,0.6939,0.6898,0.6882,0.6845,0.6822,0.6776,0.6758,0.6731,0.67,0.6687,0.6691,0.6669,0.6667,0.6674,0.6669,0.6684,0.6685,0.6673,0.6673,0.6673,0.6673,0,0.7149,0.7107,0.7068,0.7038,0.7012,0.6971,0.6949,0.6912,0.6881,0.6853,0.6817,0.6785,0.6764,0.6748,0.6732,0.6694,0.6689,0.6693,0.6649,0.6648,0.6663,0.6684,0.6699,0.6702,0.6672,0.6672,0.6672,0,0.7156,0.7122,0.709,0.7037,0.7025,0.7007,0.6965,0.6939,0.6895,0.6873,0.6843,0.6811,0.6781,0.6766,0.6723,0.6726,0.6705,0.6684,0.6683,0.6677,0.6661,0.6678,0.6702,0.6702,0.6671,0.6671,0.6671,0,0.7194,0.714,0.7114,0.7094,0.7032,0.702,0.6993,0.6949,0.6926,0.6889,0.6873,0.6832,0.681,0.6777,0.6734,0.6727,0.6695,0.6676,0.6674,0.6675,0.6669,0.667,0.6689,0.6657,0.6657,0.6657,0.6657,0,0.7209,0.7191,0.713,0.7114,0.7091,0.7046,0.7024,0.6993,0.6954,0.6929,0.6889,0.6866,0.6811,0.678,0.6746,0.6714,0.6704,0.6684,0.6675,0.6688,0.669,0.6673,0.6672,0.6657,0.6657,0.6657,0.6657,0,0.7248,0.7207,0.7175,0.7118,0.7104,0.7089,0.704,0.7021,0.6987,0.6956,0.6946,0.6892,0.6854,0.6808,0.6755,0.6731,0.6703,0.6689,0.6718,0.6713,0.6713,0.6713,0.6722,0.672,0.6689,0.669,0.669,0,0.7261,0.7246,0.7188,0.7169,0.7144,0.7114,0.7091,0.7045,0.7021,0.6969,0.6956,0.6916,0.6881,0.6821,0.6776,0.6734,0.6719,0.6725,0.6712,0.6725,0.6718,0.6719,0.6717,0.6728,0.6729,0.6729,0.673,0,0.7287,0.7267,0.7236,0.7197,0.717,0.7137,0.7101,0.7088,0.7033,0.7009,0.697,0.6943,0.6889,0.6848,0.68,0.677,0.674,0.6734,0.6731,0.6743,0.676,0.675,0.6727,0.6734,0.6733,0.6733,0.6733,0.6733,0.7312,0.7296,0.7253,0.7219,0.7188,0.7155,0.7135,0.7098,0.7066,0.7019,0.6993,0.6955,0.6908,0.6842,0.6812,0.678,0.6769,0.6765,0.6764,0.6764,0.6767,0.6766,0.6771,0.677,0.677,0.677,0.677,0,0.7336,0.7305,0.7275,0.7227,0.7199,0.7175,0.7134,0.7112,0.708,0.704,0.7007,0.6961,0.6921,0.6872,0.6828,0.6811,0.6796,0.6801,0.6801,0.6794,0.6779,0.6786,0.6813,0.6813,0.6813,0.6813,0.6813,0.6813,0.7345,0.7317,0.7291,0.7246,0.7215,0.7178,0.7157,0.7126,0.7094,0.7045,0.7012,0.6981,0.6937,0.6889,0.685,0.6836,0.6821,0.683,0.6812,0.6799,0.6796,0.6792,0.6798,0.6828,0.6828,0.683,0.683,0.683]}]]